GW0118 Weather Reports


time (UTC)temp
C
wind
direction
speed
KPH
gust
KPH
rain 1hr
cm
rain 24hr
cm
rain mn
cm
humidity
%
barometer
mb
20260505041559 7 0 0.0 1.6 0.00 0.00 0.00 85 1013.0
20260505034559 7 0 0.0 0.0 0.00 0.00 0.00 84 1013.3
20260505033115 7 0 0.0 0.0 0.00 0.00 0.00 82 1013.2
20260505031601 7 153 0.0 0.0 0.00 0.00 0.00 82 1013.2
20260505030059 7 0 0.0 3.2 0.00 0.00 0.00 80 1013.3
20260505024609 7 264 0.0 3.2 0.00 0.00 0.00 81 1013.3
20260505023107 7 290 0.0 4.8 0.00 0.00 0.00 84 1013.4
20260505021559 7 0 0.0 4.8 0.00 0.00 0.00 88 1013.4
20260505020100 7 0 0.0 1.6 0.00 0.00 0.00 89 1013.4
20260505014559 7 0 0.0 0.0 0.00 0.00 0.00 89 1013.5
20260505013059 7 0 0.0 1.6 0.00 0.00 0.00 89 1013.6
20260505011601 6 0 0.0 0.0 0.00 0.00 0.00 88 1013.6
20260505004601 7 162 1.6 3.2 0.00 0.00 0.00 87 1013.9
20260505003102 7 139 1.6 3.2 0.00 0.00 0.00 87 1013.9
20260505001559 7 0 0.0 3.2 0.00 0.00 0.00 88 1014.2
20260504234624 7 86 0.0 3.2 0.00 0.00 0.00 86 1013.9
20260504233100 7 0 0.0 1.6 0.00 0.00 0.00 84 1013.9
20260504231605 7 109 0.0 1.6 0.00 0.00 0.00 83 1014.1
20260504230101 7 0 0.0 1.6 0.00 0.00 0.00 82 1013.9
20260504224609 7 0 0.0 4.8 0.00 0.00 0.00 82 1014.1
20260504223100 8 123 0.0 1.6 0.00 0.00 0.00 80 1014.0
20260504221605 8 127 0.0 4.8 0.00 0.00 0.00 79 1014.1
20260504220100 9 0 0.0 3.2 0.00 0.00 0.00 75 1014.3
20260504214602 9 21 1.6 3.2 0.00 0.00 0.00 75 1014.2
20260504213105 10 0 0.0 4.8 0.00 0.00 0.00 76 1014.3
20260504211605 10 355 1.6 11.3 0.00 0.00 0.00 76 1014.5
20260504210105 10 344 1.6 6.4 0.00 0.00 0.00 76 1014.6
20260504204638 10 304 0.0 1.6 0.00 0.00 0.00 74 1014.2
20260504203102 10 0 0.0 6.4 0.00 0.00 0.00 73 1014.1
20260504201602 11 262 3.2 11.3 0.00 0.00 0.00 71 1013.7
20260504194603 11 0 0.0 4.8 0.00 0.00 0.00 69 1013.4
20260504193100 11 40 1.6 6.4 0.00 0.00 0.00 69 1013.2
20260504191559 12 27 1.6 8.0 0.00 0.00 0.00 68 1013.1
20260504184605 12 330 4.8 12.9 0.00 0.00 0.00 65 1012.8
20260504183101 12 340 8.0 17.7 0.00 0.00 0.00 64 1012.8
20260504181559 12 319 11.3 19.3 0.00 0.00 0.00 63 1012.6
20260504180058 13 334 9.7 16.1 0.00 0.00 0.00 62 1012.5
20260504174557 13 288 11.3 22.5 0.00 0.00 0.00 61 1012.5
20260504173058 13 338 14.5 27.4 0.00 0.00 0.00 60 1012.4
20260504171558 13 312 16.1 32.2 0.00 0.00 0.00 60 1012.4
20260504150106 13 50 4.8 19.3 0.00 0.00 0.00 62 1011.9
20260504081559 11 236 6.4 14.5 0.00 1.02 0.00 79 1013.3
20260504070106 10 0 1.6 4.8 0.00 1.02 0.00 83 1013.2
20260504050107 8 0 0.0 1.6 0.00 1.02 0.00 92 1012.9